SCP
0 0 0 0 0 1 1 1 1 2 3 3 4 5 5 6 6 7 8 10 9 7 5 5 7 9 9 8 7 6 7 8 7 6 4 4 4 4 3 4 4 3 3 3
0 0 0 1 1 1 1 2 3 4 4 5 6 6 7 6 5 6 7 8 7 6 5 5 7 9 8 7 6 6 8 8 7 6 5 4 4 4 4 4 4 3 3 3
0 0 0 1 1 1 2 3 5 5 6 6 7 7 7 6 5 5 5 6 6 5 5 5 6 7 6 6 6 6 7 8 8 7 6 6 5 4 4 4 4 3 3 3
0 0 1 1 1 1 2 4 5 5 5 5 6 8 8 7 5 5 5 6 5 4 4 4 4 4 5 6 6 7 8 8 10 11 10 9 8 6 5 4 3 3 3 3
0 0 0 0 1 1 2 3 4 3 3 4 8 10 10 7 5 5 6 7 6 5 4 3 3 4 5 6 8 8 9 10 12 14 15 14 11 8 5 4 3 3 3 3
0 0 0 0 0 1 1 2 2 2 2 5 9 12 10 8 6 6 6 8 7 6 4 3 3 4 6 8 10 11 11 12 15 17 17 15 12 8 5 4 3 3 3 3
0 0 0 0 0 1 1 1 2 2 3 5 8 10 9 8 7 6 7 8 8 6 5 3 4 7 10 13 14 14 12 13 15 16 16 13 9 6 4 3 3 3 3 3
0 0 0 0 1 1 1 1 2 2 3 5 7 9 9 8 6 6 6 7 7 7 6 6 8 12 16 18 17 14 12 11 11 11 11 8 6 4 3 2 2 2 3 3
0 0 0 0 1 1 1 2 2 2 3 5 8 10 9 7 5 5 6 6 6 7 8 9 12 15 18 17 15 12 9 8 7 6 6 5 3 2 2 2 2 2 2 2
1 1 1 1 1 1 2 2 2 3 5 8 10 11 8 6 5 5 5 6 6 7 8 10 12 15 15 13 10 8 7 5 4 4 3 2 2 1 1 1 2 2 2 2
1 1 1 1 1 1 2 2 3 6 9 12 13 11 7 5 5 5 5 5 6 6 7 8 10 11 10 8 6 5 4 4 4 3 3 2 1 1 1 1 1 2 2 2
1 1 2 2 1 1 2 3 5 8 12 15 14 10 7 6 6 6 6 5 5 5 5 5 5 6 5 3 2 2 3 3 4 4 3 2 2 1 1 0 1 1 1 1
1 1 2 1 1 1 2 3 5 8 12 13 12 9 7 7 6 6 6 6 5 5 4 3 3 2 2 1 1 1 2 3 4 4 4 3 2 1 1 0 0 0 0 0
1 1 1 1 0 1 2 5 7 10 11 10 9 8 7 7 6 6 6 6 6 5 4 4 3 2 1 1 0 1 1 2 3 4 4 3 2 1 1 0 0 0 0 0
1 1 1 1 1 2 5 9 12 12 11 10 9 8 7 6 5 5 6 6 5 5 4 3 2 1 1 0 0 0 1 2 2 3 3 3 2 1 0 0 0 0 0 0
0 1 1 1 1 3 8 11 12 11 10 10 10 9 8 7 6 5 5 4 4 3 3 2 1 1 1 0 0 0 0 1 1 2 2 1 1 0 0 0 0 0 0 1
0 1 1 1 1 3 6 8 8 7 8 10 11 11 10 8 6 5 3 3 2 2 2 1 1 1 1 1 0 0 0 0 1 1 0 0 0 0 0 0 0 0 1 1
0 0 1 1 1 2 4 5 5 5 6 8 10 10 9 7 5 3 2 1 1 1 1 1 1 1 1 1 1 0 0 0 0 0 0 0 0 0 0 0 0 0 1 2
0 0 1 1 1 2 3 4 4 3 4 6 8 8 7 5 3 2 1 1 1 1 1 1 1 1 1 1 1 0 0 0 0 0 0 0 0 0 0 0 0 0 1 2
1 1 1 1 2 3 3 4 3 2 3 5 6 6 4 3 1 1 1 1 1 1 1 1 1 1 1 0 0 0 0 0 0 0 0 0 0 0 0 0 0 1 2 2
1 2 2 2 2 3 3 3 2 1 2 4 5 5 3 1 1 0 0 0 0 0 0 0 0 0 0 0 0 0 0 0 0 0 0 0 0 0 0 0 1 1 2 2
2 2 2 2 2 3 3 2 1 1 1 3 4 4 2 1 1 1 0 0 0 0 0 0 0 0 0 0 0 0 0 0 0 0 0 0 0 0 0 0 1 1 2 2
1 1 1 2 2 2 2 2 1 1 1 2 2 2 1 1 1 1 1 1 1 0 0 0 0 0 0 0 0 0 0 0 0 0 0 0 0 0 0 0 0 1 1 2
1 1 1 1 1 1 1 1 1 1 1 2 2 1 1 1 1 1 1 1 1 0 0 0 0 0 0 0 0 0 0 0 0 0 0 0 0 0 0 0 0 0 0 1
1 1 1 1 1 1 1 1 1 1 1 1 1 1 1 1 1 1 0 0 0 0 0 0 0 0 0 0 0 0 0 0 0 0 0 0 0 0 0 0 0 0 0 0
1 1 1 1 0 0 0 1 1 1 1 1 1 1 1 1 0 0 0 0 0 0 0 0 0 0 0 0 0 0 0 0 0 0 0 0 0 0 0 0 0 0 0 0
0 0 0 0 0 0 0 0 0 0 0 0 0 0 0 0 0 0 0 0 0 0 0 0 0 0 0 0 0 0 0 0 0 0 0 0 0 0 0 0 0 0 0 0
Wind_Speed
3 4 1 2 4 2 0 4 6 5 5 4 4 4 5 6 6 6 6 4 4 5 4 5 5 5 5 5 5 5 5 5 4 4 3 2 2 3 3 3 3 2 2 2
3 3 3 4 5 3 3 1 3 5 1 2 3 4 5 5 6 5 4 3 3 4 4 4 5 5 4 4 4 5 5 5 4 3 3 3 2 2 2 2 2 2 2 2
2 4 4 4 4 2 2 3 4 4 3 3 5 4 3 4 5 4 3 2 2 3 4 4 4 4 5 5 4 5 5 4 4 4 4 4 3 2 3 3 2 2 3 3
1 3 1 6 2 3 5 4 3 4 3 5 6 3 3 3 4 3 2 1 2 2 2 2 2 2 3 4 4 4 3 4 4 4 4 3 3 3 3 2 3 3 3 3
3 2 3 4 4 2 2 1 2 4 4 3 4 5 4 2 3 3 2 2 2 4 4 3 3 3 2 3 3 4 3 3 3 4 3 3 3 3 3 3 3 3 3 4
3 3 4 4 6 4 5 1 3 2 3 3 3 2 3 2 1 2 1 0 1 2 2 3 3 3 3 3 3 3 4 4 3 3 3 4 4 3 3 3 3 3 3 3
3 2 4 5 5 3 3 5 3 1 3 4 3 5 4 2 1 1 2 1 2 2 2 3 3 3 3 2 3 3 3 3 2 3 3 3 3 2 2 2 2 2 3 3
3 2 5 5 3 2 4 3 1 1 2 3 3 3 3 2 2 2 1 1 1 2 1 0 2 3 2 2 3 2 2 2 2 2 2 2 2 2 2 2 2 3 3 3
5 6 5 1 2 2 2 2 1 2 2 4 4 3 3 3 2 2 1 1 1 1 1 0 1 3 2 2 2 2 2 1 1 1 1 1 2 2 2 2 2 3 3 3
1 1 1 2 3 3 3 2 1 2 3 4 4 3 2 3 2 2 1 1 1 2 2 1 1 0 1 1 1 2 2 2 2 2 2 1 1 2 2 2 3 3 3 3
1 2 3 4 2 1 2 2 2 1 1 4 4 3 3 2 2 2 1 1 2 1 1 0 1 1 1 1 2 1 2 2 2 2 2 2 2 2 3 3 4 4 4 4
4 4 3 4 4 1 1 0 0 1 1 2 4 4 3 3 2 2 1 1 2 0 0 1 1 1 2 2 2 2 2 2 2 2 2 2 1 2 3 3 4 5 6 6
4 3 2 2 2 2 0 1 1 2 3 2 2 4 4 3 1 2 1 1 1 1 2 1 1 2 3 2 2 3 3 3 2 2 2 2 2 1 2 4 4 4 5 6
1 1 1 2 2 2 1 1 2 2 2 2 2 3 4 3 2 2 1 2 2 1 1 2 2 3 3 2 1 2 3 3 2 2 2 2 2 2 2 2 3 4 4 4
0 1 2 2 2 1 1 2 3 2 2 1 2 3 4 3 2 2 1 1 1 0 1 1 2 4 3 2 2 3 3 2 2 2 2 2 2 2 2 2 2 3 3 3
1 1 2 1 1 1 1 1 1 1 1 1 1 2 3 3 2 2 1 1 2 1 1 1 3 4 2 2 2 2 3 4 3 2 1 1 2 2 2 2 2 2 2 2
2 1 1 1 1 1 0 1 1 2 3 3 2 2 2 3 2 1 1 1 1 1 2 2 2 3 2 2 2 2 2 2 3 1 1 1 2 2 2 2 2 2 3 2
3 2 3 2 2 1 0 1 1 2 3 3 2 2 3 3 2 1 1 1 1 2 2 2 2 2 2 2 1 1 1 1 1 1 1 1 1 2 2 2 2 2 2 1
2 1 1 1 1 1 1 1 1 2 3 2 2 2 2 2 2 2 1 1 1 2 3 3 2 1 1 2 2 1 1 1 1 1 1 2 2 2 2 2 1 1 1 0
2 2 2 2 2 2 1 1 1 2 1 2 3 2 2 1 2 2 1 0 1 2 3 2 1 1 1 2 2 1 1 1 1 1 0 1 1 2 2 2 2 2 2 2
1 1 2 2 1 1 1 1 2 1 1 2 3 2 2 1 2 2 2 0 3 2 2 2 1 1 1 1 2 1 1 1 1 0 0 1 1 1 1 1 2 2 2 2
0 0 1 1 1 0 0 1 1 2 2 1 1 1 1 1 1 0 1 2 2 2 1 1 1 1 1 2 1 1 1 1 1 0 0 1 1 1 1 1 1 1 1 1
1 1 1 0 1 1 1 1 1 2 2 2 2 2 2 2 2 2 1 2 1 2 1 1 1 1 1 1 1 1 1 1 1 1 1 1 1 1 1 1 1 1 1 1
1 1 1 0 1 1 1 2 1 1 2 2 2 2 2 1 1 2 2 2 2 2 1 2 2 2 1 1 1 1 1 1 1 1 1 1 1 1 1 1 2 2 1 1
1 0 0 0 0 1 2 2 1 0 0 1 1 1 1 2 2 2 2 2 2 2 1 1 2 2 1 1 1 1 1 2 1 1 1 1 1 1 1 1 1 1 1 1
1 1 1 1 2 2 1 1 1 1 1 1 0 1 1 1 1 1 1 2 2 2 1 1 1 2 1 1 1 1 2 2 2 1 1 1 1 1 1 1 1 1 1 1
2 1 1 2 2 1 0 1 1 0 1 2 1 1 1 1 1 1 2 1 2 2 2 2 2 2 1 1 1 1 1 2 1 1 1 1 0 0 0 0 0 0 1 1
Wind_Direction
219 242 256 305 314 342 69 187 181 205 179 210 193 166 151 130 119 111 117 122 148 151 164 157 160 166 170 171 170 164 161 170 190 194 192 195 198 198 200 199 207 205 192 210
337 340 14 354 339 2 1 18 137 124 148 214 136 101 94 96 102 104 120 147 158 148 148 168 175 170 164 162 167 161 167 183 189 184 189 199 202 200 197 196 192 195 204 209
291 317 19 336 315 25 33 6 136 159 205 128 87 82 104 119 121 121 121 144 148 157 154 158 176 177 178 174 159 157 172 183 185 186 196 205 206 201 205 206 200 202 222 217
147 36 233 245 291 90 90 45 58 104 110 131 132 124 92 102 114 115 101 148 183 164 153 158 154 169 180 160 155 160 174 186 189 192 205 207 199 209 220 213 210 217 224 231
129 177 256 294 334 326 121 5 18 111 105 96 116 77 35 32 104 137 171 183 193 194 183 169 155 153 152 158 157 160 176 182 194 196 203 208 211 221 226 223 227 228 226 226
143 170 216 255 297 296 110 287 300 127 135 131 110 108 246 255 124 163 174 183 146 156 153 156 163 150 140 161 167 181 191 192 195 188 192 201 212 223 232 226 234 233 239 236
162 195 247 265 297 27 121 223 266 159 155 149 163 194 210 208 182 183 160 144 139 140 162 181 169 146 142 171 201 207 194 187 192 196 198 202 203 213 229 242 255 249 248 251
143 168 253 294 39 118 207 220 169 120 148 141 157 160 159 151 133 118 103 83 111 131 155 168 149 144 151 200 212 183 163 170 192 210 221 209 195 229 236 228 249 259 258 265
177 204 229 272 134 182 146 113 161 154 170 150 152 163 162 148 130 120 91 74 93 129 117 356 163 153 169 230 188 152 154 187 207 203 240 217 200 222 249 245 243 253 248 251
43 296 317 30 75 58 73 97 205 155 154 146 157 163 153 145 139 124 101 98 98 98 93 351 331 110 175 214 171 146 180 220 220 199 237 250 236 222 226 232 237 244 243 245
261 283 356 353 356 30 29 38 62 61 132 162 149 145 148 150 151 141 127 101 96 103 130 313 329 288 256 221 173 182 225 227 227 218 219 236 244 241 238 240 230 232 237 227
223 229 200 264 288 285 98 347 81 88 71 116 143 147 140 140 144 134 123 104 99 106 223 258 226 267 268 239 196 193 237 246 237 226 223 218 225 302 308 273 269 249 242 234
196 210 221 264 317 326 335 334 30 103 139 146 141 132 129 137 145 135 131 130 156 209 240 247 248 265 270 252 211 202 218 239 242 233 231 232 225 231 293 319 317 289 265 247
203 100 2 320 306 305 352 16 35 70 98 130 140 137 136 137 135 138 176 196 191 209 247 247 249 267 272 259 227 227 231 236 234 230 230 230 232 229 229 254 296 307 298 269
279 146 206 265 303 322 17 50 50 56 78 77 119 138 138 141 157 181 208 190 140 95 306 293 279 279 278 250 227 231 231 233 222 222 225 223 220 222 242 253 260 282 298 300
207 63 59 52 330 330 48 71 83 154 135 142 152 168 164 157 160 172 184 153 135 170 253 252 266 272 271 248 241 235 234 242 236 217 219 228 220 217 240 253 253 265 271 268
141 128 90 322 290 287 232 189 169 169 156 158 189 185 152 131 117 99 83 114 156 226 249 244 264 281 286 277 260 253 249 247 245 235 220 217 225 229 237 247 249 256 256 239
146 165 170 196 220 231 223 92 128 134 150 164 154 126 128 132 136 131 129 81 33 348 322 290 276 295 295 292 283 277 262 249 222 216 223 231 237 238 231 235 250 262 269 256
104 107 88 86 105 120 120 101 117 130 143 145 136 138 139 140 142 143 135 105 66 328 307 309 311 312 291 290 310 309 280 235 243 253 243 251 259 251 234 230 233 244 248 231
71 74 80 60 47 75 95 104 90 82 111 145 135 120 109 120 132 138 119 122 256 265 278 304 319 304 289 301 332 320 284 247 235 250 250 241 251 255 247 239 232 232 229 220
89 84 81 69 38 46 92 112 113 118 126 125 134 144 149 155 151 143 128 315 298 297 305 322 338 333 322 324 334 342 303 282 278 240 234 248 262 257 247 243 246 242 233 221
204 124 88 70 75 22 259 135 150 158 147 143 147 138 126 135 142 127 195 220 250 267 295 327 320 330 358 7 9 1 340 319 284 237 247 254 255 260 262 246 231 241 245 237
224 209 168 147 148 205 258 217 180 174 180 184 182 180 181 195 183 170 257 271 246 238 239 271 280 298 324 2 348 332 328 332 304 276 268 262 256 244 236 231 222 228 220 216
239 219 217 226 119 104 274 264 227 200 200 195 194 186 171 175 260 247 219 223 229 232 235 255 255 272 276 325 325 311 300 297 297 291 284 284 280 262 230 218 217 222 217 211
256 267 316 329 267 244 243 231 154 145 171 188 210 214 212 198 206 233 224 210 213 212 253 252 241 252 255 299 295 294 288 282 280 271 270 268 272 270 254 229 219 211 211 219
306 287 271 249 242 238 210 164 160 203 183 168 238 257 239 230 206 208 219 220 216 214 213 223 235 238 245 261 285 300 298 291 286 274 254 248 271 289 287 249 217 189 171 181
352 355 4 0 331 317 55 103 126 203 193 175 209 262 268 265 253 243 235 231 221 227 224 217 217 222 238 251 260 273 291 299 306 319 308 299 306 317 306 283 194 123 149 169